Other Public Products
Issued by NWS Grand Forks, ND

Home | Current Version | Previous Version | Text Only | Print | Product List | Glossary Off
Versions: 1 2 3 4 5 6 7 8 9 10 11 12 13 14 15 16 17 18 19 20 21 22 23 24 25 26 27 28 29 30 31 32 33 34 35 36 37 38 39 40 41 42 43 44 45 46 47 48 49 50

000
FPUS83 KFGF 060610
OPUFGF
PRAIRIE TO PINES WEATHER ROUNDUP
NATIONAL WEATHER SERVICE EASTERN NORTH DAKOTA/GRAND FORKS ND
1200 AM CST FRI MAR 06 2015

 **SATELLITE DATA USED TO AUGMENT SKY COVER AT AUTOMATED STATIONS**
 *****  WEATHER ACROSS EASTERN NORTH DAKOTA  *****

CITY           SKY/WX    TMP DP  RH WIND       PRES   REMARKS
GRAND FORKS    CLOUDY    19  11  70 S13       29.96F WCI   6
6HR MIN TEMP:  17; 6HR MAX TEMP:  22;

GRAND FORKS AF PTCLDY    18  10  70 SW8       29.94F WCI   8
GRAND CITY NWS   N/A     18 N/A N/A SW10        N/A  WCI   6
BUXTON         NOT AVBL
DEVILS LAKE    CLEAR     21  12  68 W16       29.93S WCI   7
6HR MIN TEMP:  18; 6HR MAX TEMP:  21;

FARGO          CLOUDY    17   8  67 S14       30.03F WCI   3
6HR MIN TEMP:  16; 6HR MAX TEMP:  23;

WAHPETON ARPT  CLEAR     12   5  73 S10       30.08F WCI  -1
$$

 *****  WEATHER ACROSS CENTRAL AND WESTERN NORTH DAKOTA  *****

CITY           SKY/WX    TMP DP  RH WIND       PRES   REMARKS
JAMESTOWN      CLEAR     17   9  70 SW5       29.97F WCI  10
6HR MIN TEMP:  16; 6HR MAX TEMP:  26;

BISMARCK       PTCLDY    24  13  62 W6        30.02F WCI  17
6HR MIN TEMP:  20; 6HR MAX TEMP:  38;

MINOT          CLEAR     26  15  63 W14       29.98R WCI  14
6HR MIN TEMP:  26; 6HR MAX TEMP:  30;

MINOT AFB      CLEAR     22  18  83 NW13      29.98R WCI  10
6HR MIN TEMP:  21; 6HR MAX TEMP:  26;

GARRISON         N/A     26  15  63 W15       29.98S WCI  14
6HR MIN TEMP:  18; 6HR MAX TEMP:  29;

WILLISTON      CLEAR     31  19  61 NW10      30.04R WCI  22
6HR MIN TEMP:  30; 6HR MAX TEMP:  40;

DICKINSON      CLOUDY    30  14  51 W14       30.00S WCI  19
6HR MIN TEMP:  22; 6HR MAX TEMP:  40;

HETTINGER      CLOUDY    24  13  62 W6        30.06F WCI  17
6HR MIN TEMP:  17; 6HR MAX TEMP:  41;

$$

 *****  OTHER OBSERVATIONS NORTHEAST NORTH DAKOTA  *****

CITY           SKY/WX    TMP DP  RH WIND       PRES   REMARKS
WALHALLA         N/A     23  14  68 NW10G17   29.92R WCI  12
LANGDON        NOT AVBL
CAVALIER       FAIR      23  14  68 W10       29.92S WCI  12
GRAFTON        NOT AVBL
CANDO          FAIR      16  10  79 NW10      29.94R WCI   3
FORT TOTTEN      N/A     23  10  58 W7        29.95S WCI  15
ROLLA          FAIR      21  12  68 NW18G24   29.92F WCI   6
RUGBY          FAIR      18  12  79 NW14      29.96R WCI   4
 ***** THE ABOVE OBSERVATIONS ARE NON NWS ARE NOT QUALITY
        CONTROLLED AND MAY MIS-REPORT RAIN FOR SNOW...
$$

 *****  OTHER OBSERVATIONS SOUTHEAST NORTH DAKOTA *****

CITY           SKY/WX    TMP DP  RH WIND       PRES   REMARKS
COOPERSTOWN    NOT AVBL
VALLEY CITY    MOCLDY    19  14  79 SW8       29.99S WCI   9
OAKES            N/A     14  10  85 S13       30.03F WCI   0
GWINNER        CLEAR     19  10  68 SW13      30.04F WCI   7
SHEYENNE NWR     N/A     13   6  74 S7        29.95S WCI   3
BUFFALO        NOT AVBL
WYNDMERE         N/A     12   7  79 S8          N/A  WCI   1
 ***** THE ABOVE OBSERVATIONS ARE NON NWS ARE NOT QUALITY
       CONTROLLED AND MAY MIS-REPORT RAIN FOR SNOW...
$$

  *****  WEATHER ACROSS NORTHERN MINNESOTA  *****

CITY           SKY/WX    TMP DP  RH WIND       PRES   REMARKS
FLAG ISLAND    MOCLDY    16   9  73 SW21      29.87F WCI  -2
WARROAD        MOCLDY    16   9  73 SW16      29.90F WCI   0
ROSEAU         PTCLDY    18  10  73 SW18      29.90F WCI   2
HALLOCK        NOT AVBL
THF RVR FALLS  CLOUDY    18  10  73 SW18G25   29.96F WCI   2
6HR MIN TEMP:  14; 6HR MAX TEMP:  18;

HALSTAD        NOT AVBL
FOSSTON        MOCLDY    16   7  67 S23       29.98F WCI  -2
BAUDETTE       CLOUDY    14   4  64 SW15      29.92F WCI  -1
6HR MIN TEMP:  12; 6HR MAX TEMP:  17;

WASKISH        CLOUDY    14   5  67 S12G17    29.96F WCI   0
CROOKSTON      CLOUDY    18  10  73 SW17      30.00F WCI   2
$$
  *****  WEATHER ACROSS CENTRAL AND WEST MINNESOTA  *****

CITY           SKY/WX    TMP DP  RH WIND       PRES   REMARKS
BEMIDJI        MOCLDY    11   3  70 S12       30.00F WCI  -3
PARK RAPIDS    CLEAR      7   0  73 S9        30.04F WCI  -7
6HR MIN TEMP:   7; 6HR MAX TEMP:  12;

WADENA         CLEAR      9   1  72 S10       30.07F WCI  -6
DETROIT LAKES  CLEAR     12   7  79 S9        30.03F WCI   0
MOORHEAD       CLOUDY    16  10  79 S16       30.04F WCI   0
FERGUS FALLS   CLEAR     12   3  67 S12       30.12F WCI  -2
ELBOW LAKE     FAIR      11   5  75 S14       30.09F WCI  -5
6HR MIN TEMP:  10; 6HR MAX TEMP:  15;

MORRIS MN      CLEAR     10   5  79 SE9       30.10F WCI  -2
STAPLES        CLEAR      7   1  78 S12       30.09F WCI  -9
WHEATON        CLEAR     10   3  72 SE7       30.11F WCI   0
$$
  *****  WEATHER ELSEWHERE ACROSS MINNESOTA  *****

CITY           SKY/WX    TMP DP  RH WIND       PRES   REMARKS
DULUTH         CLEAR      7  -3  64 SW15G22   30.12F WCI -10
6HR MIN TEMP:   5; 6HR MAX TEMP:  12;

INTRNTL FALLS  CLOUDY    11   0  61 SW10G21   29.97F WCI  -3
6HR MIN TEMP:  10; 6HR MAX TEMP:  15;

ELY            PTCLDY     7  -2  66 SW9G17    30.05F WCI  -7
CLOQUET        CLEAR      3  -2  78 S7        30.13F WCI  -9
BRAINERD       CLEAR      9   1  70 S14       30.12F WCI  -7
6HR MIN TEMP:   4; 6HR MAX TEMP:  10;

HIBBING        CLEAR      3  -5  69 S3        30.08F
6HR MIN TEMP:   3; 6HR MAX TEMP:  12;

ALEXANDRIA     CLEAR     14   4  64 S15       30.10F WCI  -1
6HR MIN TEMP:  10; 6HR MAX TEMP:  15;

SAINT CLOUD    PTCLDY     9   1  70 S12       30.18F WCI  -6
6HR MIN TEMP:   3; 6HR MAX TEMP:  12;

MINNEAPOLIS    CLEAR      7   0  73 SE9       30.27F WCI  -7
6HR MIN TEMP:   7; 6HR MAX TEMP:  15;

$$

  *****  WEATHER ACROSS SOUTH DAKOTA  *****

CITY           SKY/WX    TMP DP  RH WIND       PRES   REMARKS
SIOUX FALLS    CLEAR     22   8  55 S14       30.15F WCI   9
6HR MIN TEMP:  22; 6HR MAX TEMP:  28;

BROOKINGS      NOT AVBL
WATERTOWN      CLEAR     13   4  67 S10       30.08F WCI   0
6HR MIN TEMP:  13; 6HR MAX TEMP:  21;

HURON          CLEAR     20   7  57 S6        30.10F WCI  12
6HR MIN TEMP:  20; 6HR MAX TEMP:  33;

SISSETON       NOT AVBL
ABERDEEN       CLEAR      9   4  80 S6        30.08F WCI  -1
6HR MIN TEMP:   6; 6HR MAX TEMP:  26;

MITCHELL       CLEAR     22   9  57 S6        30.13F WCI  14
PIERRE         CLEAR     24  17  74 W7        30.11S WCI  16
6HR MIN TEMP:  16; 6HR MAX TEMP:  34;

MOBRIDGE       CLEAR     21  13  71 E5        30.05F WCI  15
RAPID CITY     PTCLDY    30  16  56 W3        30.12F
6HR MIN TEMP:  25; 6HR MAX TEMP:  43;

$$

  *****  SOME WEATHER IN NEARBY STATES *****

CITY           SKY/WX    TMP DP  RH WIND       PRES   REMARKS
GLASGOW MT     CLOUDY    31  19  61 SW9       30.06S WCI  23
6HR MIN TEMP:  31; 6HR MAX TEMP:  46;

GREAT FALLS MT CLEAR     34  15  46 SW10      30.12S
6HR MIN TEMP:  34; 6HR MAX TEMP:  47;

CHEYENNE WY    PTCLDY    31  13  47 W8        30.22F WCI  23
6HR MIN TEMP:  30; 6HR MAX TEMP:  37;

SCOTTSBLUFF NE PTCLDY    27  20  75 CALM      30.23S
6HR MIN TEMP:  24; 6HR MAX TEMP:  44;

OMAHA NE       MOCLDY    26   8  46 S15       30.32F WCI  14
6HR MIN TEMP:  23; 6HR MAX TEMP:  30;

DES MOINES IA  PTCLDY    16   4  59 S10       30.39F WCI   4
6HR MIN TEMP:  16; 6HR MAX TEMP:  21;

DAVENPORT IA   MOCLDY     0  -6  76 S6        30.51F WCI -12
6HR MIN TEMP:   0; 6HR MAX TEMP:   9;

CHICAGO IL     MOCLDY     6  -2  69 SW5       30.52F WCI  -3
6HR MIN TEMP:   6; 6HR MAX TEMP:  13;

EAU CLAIRE WI  PTCLDY     3  -5  69 S8        30.32F WCI -10
6HR MIN TEMP:   1; 6HR MAX TEMP:   9;

LA CROSSE WI   PTCLDY     5  -4  66 S10       30.42F WCI -10
6HR MIN TEMP:   5; 6HR MAX TEMP:  10;

$$

  *****  SOME NATIONAL WEATHER *****

CITY           SKY/WX    TMP DP  RH WIND       PRES   REMARKS



USA.gov is the U.S. government's official web portal to all federal, state and local government web resources and services.